Probability
0 0 0 0 0 0 0 0 0 0 0 0 0 0 0 0 0 0 0 0 0 0 0 0 0 0 0 0 0 0 0 0 0 0 0 0 0 0 0 0 0 1 0
0 0 0 0 0 0 0 0 0 0 0 0 0 0 0 0 0 0 0 0 0 0 0 0 0 0 0 0 0 0 0 0 0 0 0 0 0 0 0 0 0 1 1
0 0 0 0 0 0 0 0 0 0 0 0 0 0 0 0 0 0 0 0 0 0 0 0 0 0 0 0 0 0 0 0 0 0 0 0 0 0 0 0 0 0 0
0 0 0 0 0 0 0 0 0 0 0 0 0 0 0 0 0 0 0 0 0 0 0 0 0 0 0 0 0 0 0 0 0 0 0 0 0 0 0 0 0 0 1
0 0 0 0 0 0 0 0 0 0 0 0 0 0 0 0 0 0 0 0 0 0 0 0 0 0 0 0 0 0 0 0 0 0 0 0 0 0 0 0 0 0 1
0 0 0 0 0 0 0 0 0 0 0 0 0 0 0 0 0 0 0 0 0 0 0 0 0 0 0 0 0 0 0 0 0 0 0 0 0 0 0 0 0 0 1
0 0 0 0 0 0 0 0 0 0 0 0 0 0 0 0 0 0 0 0 0 0 0 0 0 0 0 0 0 0 0 0 0 0 0 0 0 0 0 0 0 0 0
0 0 0 0 0 0 0 0 0 0 0 0 0 0 0 0 0 0 0 0 0 0 0 0 0 0 0 0 0 0 0 0 0 0 0 0 0 0 0 0 0 0 0
0 0 0 0 0 0 0 0 0 0 0 0 0 0 0 0 0 0 0 0 0 0 0 0 0 0 0 0 0 0 0 0 0 0 0 0 0 0 0 0 0 0 0
0 0 0 0 0 0 0 0 0 0 0 0 0 0 0 0 0 0 0 0 0 0 0 0 0 0 0 0 0 0 0 0 0 0 0 0 0 0 0 0 0 0 0
0 0 0 0 0 0 0 0 0 0 0 0 0 0 0 0 0 0 0 0 0 0 0 0 0 0 0 0 0 0 0 0 0 0 0 0 0 0 0 0 0 0 0
0 0 0 0 0 0 0 0 0 0 0 0 0 0 0 0 0 0 0 0 0 0 0 0 0 0 0 0 0 0 0 0 0 0 0 0 0 0 0 0 0 0 0
0 0 0 0 0 0 0 0 0 0 0 0 0 0 0 0 0 0 0 0 0 0 0 0 0 0 0 0 0 0 0 0 0 0 0 0 0 0 0 0 0 0 0
0 0 0 0 0 0 0 0 0 0 0 0 0 0 0 0 0 0 0 0 0 0 0 0 0 0 0 0 0 0 0 0 0 0 0 0 0 0 0 0 0 0 0
0 0 0 0 0 0 0 0 0 0 0 0 1 0 0 0 0 0 0 0 0 0 0 0 0 0 0 0 0 0 0 0 0 0 0 0 0 0 0 0 0 0 0
0 0 0 0 0 0 0 0 0 0 0 0 0 0 0 0 0 0 0 0 0 0 0 0 0 0 0 0 0 0 0 0 0 0 0 0 0 0 0 0 0 0 0
0 0 0 0 0 0 0 0 0 0 0 0 0 0 0 0 0 0 0 0 0 0 0 0 0 0 0 0 0 0 0 0 0 0 0 0 0 0 0 0 0 0 0
0 0 0 0 0 0 0 0 0 0 0 0 0 0 0 0 0 0 0 0 0 0 0 0 0 0 0 0 0 0 0 0 0 0 0 0 0 0 0 0 0 0 0
0 0 0 0 0 0 0 0 0 0 0 0 0 0 0 0 0 0 0 0 0 0 0 0 0 0 0 0 0 0 0 0 0 0 0 0 0 0 0 0 0 0 0
0 0 0 0 0 0 0 0 0 0 0 0 0 0 0 0 0 0 0 0 0 0 0 0 0 0 0 0 0 0 0 0 0 0 0 0 0 0 0 0 0 0 0
0 0 0 0 0 0 0 0 0 0 0 0 0 0 0 0 0 0 0 0 0 0 0 0 0 0 0 0 0 0 0 0 0 0 0 0 0 0 0 0 0 0 0
0 0 0 0 0 0 0 0 0 0 0 0 0 0 0 0 0 0 0 0 0 0 0 0 0 0 0 0 0 0 0 0 0 0 0 0 0 0 0 0 0 0 0
0 0 0 0 0 0 0 0 0 0 0 0 0 0 0 0 0 0 0 0 0 0 0 0 0 0 0 0 0 0 0 0 0 0 0 0 0 0 0 0 0 0 0
0 0 0 0 0 0 0 0 0 0 0 0 0 0 0 0 0 0 0 0 0 0 0 0 0 0 0 0 0 0 0 0 0 0 0 0 0 0 0 0 0 0 0
0 0 0 0 0 0 0 0 0 0 0 0 0 0 0 0 0 0 0 0 0 0 0 0 0 0 0 0 0 0 0 0 0 0 0 0 0 0 0 0 0 0 0
0 0 0 0 0 0 0 0 0 0 0 0 0 0 0 0 0 0 0 0 0 0 0 0 0 0 0 0 0 0 0 0 0 0 0 0 0 0 0 0 0 0 0
Wind_Speed
6 5 5 4 3 3 2 3 2 2 3 2 2 3 3 3 2 2 3 3 2 3 2 3 3 3 2 2 2 2 2 2 3 3 3 3 4 5 4 4 3 2 1
6 5 5 4 4 3 4 3 3 3 3 3 3 3 3 3 3 3 3 3 3 3 3 3 3 3 3 3 2 2 2 3 3 4 3 4 5 5 5 4 3 3 2
6 6 6 5 5 4 4 4 3 4 4 4 3 3 3 3 3 3 3 3 4 4 4 4 4 4 3 3 3 3 3 3 3 3 4 3 4 4 5 4 3 3 3
7 6 6 6 5 5 5 4 4 4 4 4 4 3 3 3 3 3 3 3 4 4 4 4 5 5 5 5 3 4 3 3 3 3 3 3 3 4 4 4 3 3 3
8 7 6 6 6 5 5 5 5 4 4 4 4 4 4 3 4 4 3 3 3 4 4 4 5 6 8 6 5 5 5 3 3 3 4 3 3 4 4 4 5 4 4
8 7 6 6 6 5 5 5 5 4 4 4 3 3 3 4 6 6 5 2 2 3 4 4 3 3 3 1 3 5 6 5 5 4 4 4 5 5 5 5 5 5 4
8 8 7 7 6 6 6 5 5 4 4 3 3 3 3 5 4 4 5 3 3 3 4 4 3 3 4 4 2 4 2 2 4 6 6 6 6 6 7 7 6 6 6
9 8 7 7 7 6 5 5 4 4 4 3 2 2 3 4 4 3 4 3 2 2 3 4 4 4 6 8 7 5 5 4 4 6 6 6 7 7 7 8 8 8 7
9 8 8 7 7 6 6 5 4 3 3 3 2 2 2 3 3 3 5 2 2 2 3 3 5 5 6 8 7 6 6 5 2 5 7 8 8 9 8 7 7 7 7
8 8 7 7 7 6 6 5 4 3 3 3 2 1 1 1 3 2 5 3 3 3 3 2 2 5 7 8 8 7 7 7 7 7 7 7 8 6 7 7 6 7 7
8 7 7 7 6 6 5 4 4 4 3 3 2 2 1 0 2 1 4 4 4 4 4 4 3 3 6 8 9 7 8 10 9 8 7 6 6 5 5 6 6 6 8
8 8 7 7 6 5 5 4 4 4 4 3 3 2 2 1 1 0 2 4 7 5 5 5 4 5 7 8 7 7 9 10 7 7 7 6 6 6 6 6 8 8 8
9 8 7 7 6 5 6 5 4 4 3 3 2 2 2 1 1 3 3 4 5 5 5 5 7 8 9 7 6 8 9 7 6 6 7 7 6 7 7 7 8 9 10
9 8 7 7 6 5 4 4 3 3 3 3 2 2 2 2 2 2 2 3 4 5 5 5 7 9 8 7 7 6 6 5 6 7 7 7 7 6 7 7 7 7 8
9 7 7 6 5 5 4 2 3 2 1 2 2 3 3 3 2 5 5 5 5 5 7 6 6 5 6 5 5 5 6 6 6 6 7 7 7 7 7 7 7 8 9
8 7 5 5 4 4 4 3 1 1 2 2 2 4 2 2 3 4 6 7 7 8 7 6 6 6 7 6 6 6 6 6 6 7 7 7 8 8 8 7 7 8 9
8 7 5 5 5 4 4 3 3 3 4 4 4 4 5 4 5 5 6 7 8 8 7 6 6 7 7 7 7 7 7 7 7 7 7 8 8 8 8 8 8 8 9
7 6 5 5 4 4 4 4 3 3 3 3 4 6 6 6 7 7 7 7 6 5 6 6 7 7 7 7 7 7 7 7 7 7 8 8 8 8 8 9 8 9 9
7 5 5 4 4 4 4 4 4 4 4 4 3 4 5 6 8 7 7 6 6 6 6 6 7 7 7 7 7 7 8 8 8 8 8 8 8 8 9 9 9 10 10
5 5 5 5 5 4 4 4 4 4 4 4 4 4 3 4 5 5 5 6 7 7 7 7 7 7 7 7 7 7 8 8 8 8 8 8 8 8 9 11 10 10 9
5 5 7 5 4 4 4 4 4 4 5 5 5 4 4 6 6 7 6 6 7 7 7 7 7 7 7 7 7 8 9 8 8 8 8 8 9 9 9 9 10 10 10
4 4 5 4 4 4 4 4 5 5 5 6 5 4 5 6 6 7 7 7 7 7 7 7 7 7 7 7 8 8 8 8 8 8 9 9 9 9 9 9 10 10 10
4 4 4 4 4 4 5 5 5 5 5 6 6 6 5 6 6 7 7 7 7 7 7 7 8 8 7 7 7 8 8 9 8 9 10 10 9 9 9 10 12 12 11
4 5 4 4 4 4 5 5 5 5 6 6 6 6 6 6 7 8 8 7 7 7 7 7 8 10 12 10 8 8 8 9 10 9 12 11 11 10 10 10 11 12 12
4 4 4 4 4 5 5 5 6 6 6 6 6 7 7 7 7 8 8 7 8 8 9 9 8 9 12 13 12 10 9 10 10 10 10 10 12 12 12 12 11 12 12
4 4 4 4 4 5 5 5 6 6 6 6 6 7 7 7 8 8 8 8 8 8 9 9 10 12 14 12 12 11 10 10 11 12 11 10 11 11 11 10 13 12 13
Wind_Direction
160 155 153 148 141 137 119 108 110 104 109 100 82 72 65 51 49 55 42 41 31 32 23 18 10 7 352 353 347 337 330 319 308 320 340 348 350 351 354 344 338 323 81
161 158 150 143 144 136 119 115 115 107 101 95 87 76 67 54 46 45 43 36 35 30 23 19 18 22 9 4 351 344 344 328 309 317 324 339 343 347 342 332 330 338 332
159 157 153 147 138 129 120 114 114 111 107 98 87 77 68 57 54 48 44 38 36 31 27 24 22 17 11 16 352 350 345 337 320 304 320 331 324 339 331 326 323 324 312
155 155 150 140 136 133 124 121 115 109 105 97 87 76 66 58 49 46 44 41 41 39 32 29 25 18 8 2 353 352 341 332 326 314 314 322 327 334 322 325 324 327 309
155 153 145 139 137 132 128 126 114 106 102 94 88 79 69 58 43 25 35 39 40 39 36 36 40 33 20 4 354 347 341 330 328 326 320 322 328 334 335 327 319 315 304
158 149 140 142 138 138 135 129 120 116 108 100 95 84 75 63 49 16 350 26 30 30 24 22 38 42 22 11 354 339 335 334 333 324 315 317 323 330 329 315 314 310 305
157 150 150 149 145 144 140 135 134 133 122 114 104 94 87 77 57 26 345 337 9 10 3 6 6 12 340 345 313 247 254 262 293 306 310 316 316 321 316 308 305 302 299
158 155 154 155 151 147 144 143 149 143 135 133 118 110 94 80 57 21 322 306 352 355 348 344 342 351 9 341 327 328 328 326 313 300 310 313 315 316 307 299 296 289 285
162 162 160 159 155 154 153 155 152 149 148 152 141 135 133 111 76 7 312 317 321 332 335 342 337 338 11 329 312 317 317 318 284 269 287 286 286 281 284 286 287 285 288
167 166 163 162 161 163 163 161 155 159 164 163 153 171 167 108 83 12 312 304 312 313 313 307 4 336 342 324 308 311 312 319 313 300 282 272 278 273 255 272 287 288 290
163 163 165 166 166 164 164 166 167 167 171 179 176 193 208 264 118 53 319 306 315 309 308 305 331 337 315 311 301 305 319 312 302 300 298 297 295 295 292 290 292 289 288
158 162 164 163 162 162 164 172 178 176 184 193 207 211 228 219 274 258 290 301 312 304 304 308 330 328 304 296 294 308 304 294 290 295 294 294 297 299 299 298 293 285 279
159 162 164 163 163 167 171 176 182 188 203 213 222 237 243 252 206 213 247 271 280 287 300 321 313 302 291 276 270 279 279 280 290 292 292 294 296 296 296 293 289 286 284
163 163 165 166 166 168 173 184 189 196 208 221 233 244 253 253 272 290 282 270 258 270 286 284 268 270 268 275 277 268 272 285 290 289 290 291 291 288 285 288 289 290 287
166 166 167 166 168 173 173 184 201 196 230 247 250 256 266 272 335 338 310 306 312 313 307 292 290 291 288 285 285 285 283 279 276 281 285 288 288 287 287 288 286 286 284
170 169 168 168 170 177 176 168 138 207 168 218 271 283 273 295 309 298 295 295 298 296 290 285 289 291 293 294 293 291 287 285 286 285 285 286 286 286 286 286 284 283 283
175 171 170 174 175 183 188 196 195 193 198 212 225 239 257 275 276 278 281 283 277 272 273 282 288 293 293 292 294 293 292 292 291 286 284 285 286 286 286 285 285 284 283
177 171 174 180 187 193 199 207 216 226 226 227 216 217 231 249 260 265 270 274 271 263 277 285 289 292 294 293 292 292 292 291 289 289 288 287 286 287 286 285 284 285 285
181 181 183 185 193 201 207 216 224 232 241 248 251 223 221 241 246 250 255 269 280 282 283 284 287 289 290 292 293 291 290 289 290 289 287 287 286 286 286 288 287 286 283
184 180 189 193 198 204 212 221 230 238 246 252 257 265 259 260 266 265 260 270 276 280 282 283 285 287 290 291 291 288 286 285 286 285 287 285 284 284 285 286 287 287 283
184 178 187 202 209 214 221 228 236 244 251 257 262 267 269 267 270 274 275 274 276 280 282 284 285 285 286 287 286 285 284 284 286 288 287 284 284 284 284 282 281 281 283
188 190 197 205 211 219 228 235 242 249 255 261 267 259 234 259 270 274 275 277 277 277 280 281 280 280 281 282 284 285 285 286 288 288 287 287 285 283 283 282 283 282 281
193 194 200 207 215 215 229 240 247 253 258 263 267 270 265 267 271 274 277 279 279 278 278 276 277 279 280 280 280 281 284 287 289 290 289 287 285 283 282 281 282 283 280
197 202 210 216 222 231 239 247 253 257 263 267 270 272 274 275 276 278 281 282 281 280 279 278 277 279 281 283 281 279 282 291 293 287 286 286 286 284 280 279 280 279 280
206 213 221 227 231 239 248 254 258 261 264 268 273 276 278 279 280 281 281 281 283 282 282 281 278 281 282 283 284 285 292 290 284 285 287 284 283 283 281 280 278 279 278
214 224 234 240 244 249 254 258 261 266 268 272 278 282 284 284 285 284 284 282 282 282 282 282 281 284 286 285 285 287 285 281 278 277 279 280 279 278 280 278 277 276 276